When you browse on this site, cookies collect data to enhance your experience and personalize the content and advertising you see.
Visit our Privacy Policy to learn more. By continuing to use the site, you agree to this use of cookies and data.
  • Em Portugal
  • Lista de países
  • Para 7 dias
  • Temperatura da água
  • Mapas de satélite
  • Mapa do tempo
  • Widgets de tempo
  • user-avatar
    Iniciar Sessão

    Previsão horária em Santa Fé

    Hoje, 23 Maio, Quinta-feira

    Tempo Temperatura Precipitação Vento Pressão Humidade
    00:00 +11°C° 0 mm 3 m/s 765 mmHg 83%
    01:00 +12°C° 0 mm 2 m/s 765 mmHg 82%
    02:00 +10°C° 0 mm 2 m/s 765 mmHg 81%
    03:00 +10°C° 0 mm 2 m/s 765 mmHg 81%
    04:00 +9°C° 0 mm 2 m/s 764 mmHg 80%
    05:00 +9°C° 0 mm 2 m/s 764 mmHg 80%
    06:00 +9°C° 0 mm 2 m/s 764 mmHg 78%
    07:00 +9°C° 0 mm 2 m/s 765 mmHg 75%
    08:00 +10°C° 0 mm 2 m/s 765 mmHg 69%
    09:00 +13°C° 0 mm 2 m/s 765 mmHg 63%
    10:00 +14°C° 0 mm 2 m/s 765 mmHg 57%
    11:00 +16°C° 0 mm 2 m/s 765 mmHg 51%
    12:00 +17°C° 0 mm 2 m/s 765 mmHg 50%
    13:00 +18°C° 0 mm 2 m/s 764 mmHg 48%
    14:00 +19°C° 0 mm 2 m/s 764 mmHg 47%
    15:00 +17°C° 0 mm 2 m/s 763 mmHg 52%
    16:00 +16°C° 0 mm 2 m/s 763 mmHg 57%
    17:00 +15°C° 0 mm 1 m/s 763 mmHg 61%
    18:00 +14°C° 0 mm 1 m/s 763 mmHg 64%
    19:00 +13°C° 0 mm 1 m/s 763 mmHg 67%
    20:00 +12°C° 0 mm 1 m/s 763 mmHg 69%
    21:00 +12°C° 0 mm 1 m/s 763 mmHg 70%
    22:00 +11°C° 0 mm 1 m/s 763 mmHg 71%
    23:00 +11°C° 0 mm 1 m/s 763 mmHg 73%

    Amanhã, 24 Maio, Sexta-feira

    Tempo Temperatura Precipitação Vento Pressão Humidade
    00:00 +11°C° 0 mm 1 m/s 762 mmHg 74%
    01:00 +10°C° 0 mm 1 m/s 762 mmHg 75%
    02:00 +10°C° 0 mm 1 m/s 762 mmHg 77%
    03:00 +10°C° 0 mm 1 m/s 762 mmHg 78%
    04:00 +9°C° 0 mm 1 m/s 762 mmHg 78%
    05:00 +9°C° 0 mm 1 m/s 762 mmHg 79%
    06:00 +10°C° 0 mm 1 m/s 762 mmHg 78%
    07:00 +10°C° 0 mm 1 m/s 762 mmHg 76%
    08:00 +11°C° 0 mm 1 m/s 762 mmHg 74%
    09:00 +13°C° 0 mm 1 m/s 762 mmHg 66%
    10:00 +15°C° 0 mm 1 m/s 762 mmHg 59%
    11:00 +19°C° 0 mm 1 m/s 762 mmHg 52%
    12:00 +18°C° 0 mm 2 m/s 761 mmHg 49%
    13:00 +19°C° 0 mm 2 m/s 761 mmHg 47%
    14:00 +20°C° 0 mm 2 m/s 760 mmHg 44%
    15:00 +19°C° 0 mm 2 m/s 760 mmHg 50%
    16:00 +18°C° 0 mm 2 m/s 759 mmHg 56%
    17:00 +16°C° 0 mm 1 m/s 759 mmHg 61%
    18:00 +15°C° 0 mm 1 m/s 759 mmHg 64%
    19:00 +15°C° 0 mm 1 m/s 760 mmHg 68%
    20:00 +14°C° 0 mm 2 m/s 760 mmHg 71%
    21:00 +13°C° 0 mm 2 m/s 760 mmHg 72%
    22:00 +13°C° 0 mm 2 m/s 760 mmHg 74%
    23:00 +13°C° 0 mm 2 m/s 760 mmHg 75%

    Depois de amanhã, 25 Maio, Sábado

    Tempo Temperatura Precipitação Vento Pressão Humidade
    00:00 +12°C° 0 mm 2 m/s 760 mmHg 76%
    01:00 +12°C° 0 mm 2 m/s 759 mmHg 77%
    02:00 +12°C° 0 mm 2 m/s 759 mmHg 78%
    03:00 +10°C° 0 mm 2 m/s 759 mmHg 80%
    04:00 +10°C° 0 mm 3 m/s 759 mmHg 82%
    05:00 +10°C° 0 mm 3 m/s 759 mmHg 84%
    06:00 +10°C° 0 mm 3 m/s 759 mmHg 82%
    07:00 +10°C° 0 mm 3 m/s 759 mmHg 81%
    08:00 +11°C° 0 mm 3 m/s 759 mmHg 80%
    09:00 +13°C° 0 mm 4 m/s 759 mmHg 73%
    10:00 +14°C° 0 mm 4 m/s 759 mmHg 67%
    11:00 +17°C° 0 mm 4 m/s 759 mmHg 61%
    12:00 +18°C° 0 mm 4 m/s 758 mmHg 58%
    13:00 +19°C° 0 mm 4 m/s 757 mmHg 55%
    14:00 +21°C° 0 mm 5 m/s 756 mmHg 52%
    15:00 +19°C° 0 mm 4 m/s 756 mmHg 57%
    16:00 +18°C° 0 mm 3 m/s 756 mmHg 62%
    17:00 +17°C° 0 mm 3 m/s 756 mmHg 68%
    18:00 +16°C° 0 mm 3 m/s 756 mmHg 69%
    19:00 +16°C° 0 mm 3 m/s 756 mmHg 70%
    20:00 +14°C° 0 mm 3 m/s 756 mmHg 71%
    21:00 +14°C° 0 mm 3 m/s 756 mmHg 72%
    22:00 +14°C° 0 mm 3 m/s 757 mmHg 72%
    23:00 +14°C° 0 mm 3 m/s 757 mmHg 72%

    26 Maio, Domingo

    Tempo Temperatura Precipitação Vento Pressão Humidade
    00:00 +13°C° 0 mm 3 m/s 757 mmHg 75%
    01:00 +13°C° 0 mm 3 m/s 757 mmHg 78%
    02:00 +13°C° 0 mm 3 m/s 757 mmHg 81%
    03:00 +12°C° 0 mm 3 m/s 756 mmHg 84%
    04:00 +12°C° 0 mm 3 m/s 756 mmHg 88%
    05:00 +12°C° 0 mm 2 m/s 756 mmHg 92%
    06:00 +13°C° 0 mm 2 m/s 757 mmHg 91%
    07:00 +13°C° 0 mm 2 m/s 757 mmHg 90%
    08:00 +14°C° 0 mm 2 m/s 758 mmHg 89%
    09:00 +16°C° 0 mm 2 m/s 758 mmHg 82%
    10:00 +17°C° 0 mm 2 m/s 758 mmHg 75%
    11:00 +19°C° 0 mm 2 m/s 758 mmHg 67%
    12:00 +20°C° 0 mm 2 m/s 757 mmHg 64%
    13:00 +22°C° 0 mm 1 m/s 757 mmHg 60%
    14:00 +21°C° 0 mm 0 m/s 756 mmHg 57%
    15:00 +22°C° 0 mm 1 m/s 756 mmHg 62%
    16:00 +21°C° 0 mm 1 m/s 756 mmHg 66%
    17:00 +20°C° 0 mm 1 m/s 757 mmHg 70%
    18:00 +19°C° 0 mm 1 m/s 757 mmHg 72%
    19:00 +19°C° 0 mm 1 m/s 757 mmHg 74%
    20:00 +17°C° 0 mm 2 m/s 758 mmHg 76%
    21:00 +18°C° 0 mm 1 m/s 758 mmHg 78%
    22:00 +18°C° 0 mm 1 m/s 758 mmHg 80%
    23:00 +16°C° 0 mm 1 m/s 758 mmHg 82%

    27 Maio, Segunda-feira

    Tempo Temperatura Precipitação Vento Pressão Humidade
    00:00 +16°C° 0 mm 1 m/s 758 mmHg 83%
    01:00 +16°C° 0 mm 1 m/s 758 mmHg 84%
    02:00 +16°C° 0 mm 1 m/s 758 mmHg 85%
    03:00 +16°C° 0 mm 1 m/s 758 mmHg 87%
    04:00 +16°C° 0 mm 1 m/s 757 mmHg 88%
    05:00 +15°C° 0 mm 1 m/s 757 mmHg 90%
    06:00 +16°C° 0 mm 1 m/s 757 mmHg 89%
    07:00 +16°C° 0 mm 1 m/s 757 mmHg 89%
    08:00 +16°C° 0 mm 2 m/s 758 mmHg 89%
    09:00 +17°C° 0 mm 2 m/s 758 mmHg 85%
    10:00 +17°C° 0 mm 2 m/s 758 mmHg 82%
    11:00 +18°C° 0 mm 2 m/s 758 mmHg 78%
    12:00 +19°C° 0 mm 2 m/s 757 mmHg 76%
    13:00 +20°C° 0 mm 2 m/s 756 mmHg 73%
    14:00 +20°C° 0 mm 2 m/s 756 mmHg 70%
    15:00 +19°C° 0 mm 2 m/s 756 mmHg 74%
    16:00 +19°C° 0 mm 2 m/s 756 mmHg 78%
    17:00 +18°C° 0 mm 2 m/s 756 mmHg 82%
    18:00 +18°C° 0 mm 1 m/s 756 mmHg 85%
    19:00 +16°C° 0 mm 1 m/s 757 mmHg 89%
    20:00 +15°C° 0 mm 1 m/s 757 mmHg 92%
    21:00 +15°C° 0 mm 1 m/s 757 mmHg 93%
    22:00 +15°C° 0 mm 1 m/s 757 mmHg 93%
    23:00 +14°C° 0 mm 1 m/s 757 mmHg 94%

    28 Maio, Terça-feira

    Tempo Temperatura Precipitação Vento Pressão Humidade
    00:00 +14°C° 0 mm 1 m/s 758 mmHg 94%
    01:00 +14°C° 0 mm 1 m/s 758 mmHg 94%
    02:00 +13°C° 0 mm 1 m/s 758 mmHg 94%
    03:00 +13°C° 0 mm 1 m/s 758 mmHg 94%
    04:00 +13°C° 0 mm 1 m/s 758 mmHg 95%
    05:00 +13°C° 0 mm 1 m/s 758 mmHg 95%
    06:00 +13°C° 0 mm 1 m/s 759 mmHg 93%
    07:00 +14°C° 0 mm 1 m/s 759 mmHg 92%
    08:00 +14°C° 0 mm 1 m/s 760 mmHg 91%
    09:00 +16°C° 0 mm 1 m/s 760 mmHg 83%
    10:00 +18°C° 0 mm 2 m/s 760 mmHg 75%
    11:00 +20°C° 0 mm 2 m/s 761 mmHg 67%
    12:00 +21°C° 0 mm 2 m/s 760 mmHg 61%
    13:00 +21°C° 0 mm 2 m/s 760 mmHg 56%
    14:00 +23°C° 0 mm 2 m/s 759 mmHg 51%
    15:00 +21°C° 0 mm 2 m/s 759 mmHg 54%
    16:00 +20°C° 0 mm 1 m/s 759 mmHg 58%
    17:00 +19°C° 0 mm 1 m/s 759 mmHg 62%
    18:00 +17°C° 0 mm 2 m/s 760 mmHg 65%
    19:00 +16°C° 0 mm 2 m/s 760 mmHg 69%
    20:00 +15°C° 0 mm 2 m/s 761 mmHg 72%
    21:00 +15°C° 0 mm 2 m/s 761 mmHg 75%
    22:00 +14°C° 0 mm 2 m/s 761 mmHg 77%
    23:00 +14°C° 0 mm 2 m/s 761 mmHg 80%
    Mostrar mais